Weather History for KBAB - November, 2012

Change the Weather History Date:

Thursday, November 22, 2012

  Actual Average Record
Temperature  
Mean Temperature 51 °F -  
Max Temperature 60 °F 59 °F 73 °F (2013)
Min Temperature 42 °F 43 °F 35 °F (1999)
Degree Days  
Heating Degree Days 14    
Growing Degree Days 1 (Base 50)    
Moisture  
Dew Point 46 °F    
Average Humidity 85    
Maximum Humidity 100    
Minimum Humidity 55    
Precipitation  
Precipitation 0.00 in - - ()
Sea Level Pressure  
Sea Level Pressure 30.20 in    
Wind  
Wind Speed 5 mph (North)    
Max Wind Speed 8 mph    
Max Gust Speed -    
Visibility 7 miles    
Events      
Averages and records for this station are not official NWS values.
T = Trace of Precipitation, MM = Missing Value Source: NWS Daily Summary

Daily Weather History Graph

Daily Weather History Graph

Search for Another Location

Airport or City:

Trip Planner

Search our weather history database for the weather conditions in past years. The results will help you decide how hot, cold, wet, or windy it might be!

Date:

Astronomy

Nov. 22, 2012 Rise Set
Actual Time 6:57 AM PST 4:46 PM PST
Civil Twilight 6:28 AM PST 5:15 PM PST
Nautical Twilight 5:55 AM PST 5:48 PM PST
Astronomical Twilight 5:23 AM PST 6:20 PM PST
Moon 1:32 PM PST (11/22) 1:24 AM PST (11/22)
Length of Visible Light 10h 47m
Length of Day
9h 49m
Waxing Gibbous, 72% of the Moon is Illuminated
Nov 22
Waxing Gibbous
Nov 28
Full
Dec 6
Last Quarter
Dec 13
New
Dec 19
First Quarter

Hourly Weather History & Observations

Time (PST) Temp. Windchill Dew Point Humidity Pressure Visibility Wind Dir Wind Speed Gust Speed Precip Events Conditions
12:08 AM 48.2 °F - 48.2 °F 100% 30.19 in 8.0 mi NW 6.9 mph - N/A   Clear
12:18 AM 48.2 °F - 48.2 °F 100% 30.19 in 5.0 mi NW 8.1 mph - N/A   Clear
12:38 AM 48.2 °F - 48.2 °F 100% 30.20 in 9.0 mi NNW 5.8 mph - N/A   Clear
12:58 AM 47.1 °F - 47.1 °F 100% 30.20 in 8.0 mi NNW 6.9 mph - N/A   Clear
1:48 AM 46.4 °F 43.5 °F 46.4 °F 100% 30.19 in 6.0 mi NNW 5.8 mph - N/A   Clear
1:58 AM 46.4 °F 42.4 °F 46.4 °F 100% 30.19 in 6.0 mi NNW 8.1 mph - N/A   Clear
2:08 AM 46.4 °F 42.9 °F 46.4 °F 100% 30.19 in 10.0 mi North 6.9 mph - N/A   Clear
2:58 AM 46.6 °F - 46.6 °F 100% 30.19 in 10.0 mi North 5.8 mph - N/A   Clear
3:28 AM 44.6 °F 40.7 °F 44.6 °F 100% 30.19 in 9.0 mi NW 6.9 mph - N/A   Clear
3:38 AM 44.6 °F 40.7 °F 44.6 °F 100% 30.19 in 10.0 mi NW 6.9 mph - N/A   Clear
3:58 AM 45.3 °F 41.1 °F 45.3 °F 100% 30.18 in 10.0 mi NNW 8.1 mph - N/A   Clear
4:58 AM 44.6 °F 40.2 °F 44.4 °F 99% 30.19 in 10.0 mi North 8.1 mph - N/A   Clear
5:58 AM 42.6 °F 39.9 °F 42.6 °F 100% 30.19 in 10.0 mi North 4.6 mph - N/A   Clear
6:58 AM 43.3 °F 38.6 °F 43.3 °F 100% 30.21 in 10.0 mi North 8.1 mph - N/A   Clear
7:58 AM 45.0 °F 42.6 °F 45.0 °F 100% 30.23 in 10.0 mi North 4.6 mph - N/A   Clear
8:58 AM 47.7 °F - 47.1 °F 98% 30.24 in 10.0 mi Calm Calm - N/A   Clear
9:58 AM 50.5 °F - 46.0 °F 85% 30.25 in 10.0 mi NW 6.9 mph - N/A   Clear
10:58 AM 53.6 °F - 44.8 °F 72% 30.24 in 10.0 mi North 5.8 mph - N/A   Clear
11:58 AM 55.9 °F - 45.0 °F 67% 30.21 in 10.0 mi Calm Calm - N/A   Clear
12:58 PM 59.5 °F - 44.6 °F 58% 30.19 in 10.0 mi Variable 3.5 mph - N/A   Clear
1:18 PM 59.0 °F - 42.8 °F 55% 30.18 in 2.5 mi North 3.5 mph - N/A   Haze
1:28 PM 59.0 °F - 42.8 °F 55% 30.19 in 3.0 mi North 3.5 mph - N/A   Haze
1:48 PM 60.8 °F - 44.6 °F 55% 30.19 in 1.5 mi NNW 2.3 mph - N/A   Haze
1:58 PM 60.1 °F - 44.8 °F 57% 30.18 in 1.2 mi NW 3.5 mph - N/A   Haze
2:18 PM 60.8 °F - 44.6 °F 55% 30.18 in 1.5 mi NW 4.6 mph - N/A   Haze
2:48 PM 60.8 °F - 46.4 °F 59% 30.18 in 3.0 mi North 4.6 mph - N/A   Haze
2:58 PM 60.1 °F - 46.8 °F 61% 30.18 in 7.0 mi North 5.8 mph - N/A   Clear
3:58 PM 59.7 °F - 47.1 °F 63% 30.18 in 10.0 mi North 2.3 mph - N/A   Clear
4:58 PM 55.6 °F - 47.3 °F 74% 30.18 in 10.0 mi Calm Calm - N/A   Clear
5:28 PM 53.6 °F - 46.4 °F 77% 30.18 in 2.5 mi Calm Calm - N/A   Haze
5:38 PM 51.8 °F - 46.4 °F 82% 30.18 in 7.0 mi Calm Calm - N/A   Clear
5:48 PM 51.8 °F - 46.4 °F 82% 30.18 in 5.0 mi Calm Calm - N/A   Haze
5:58 PM 51.4 °F - 46.9 °F 85% 30.19 in 1.8 mi Calm Calm - N/A   Haze
6:08 PM 51.8 °F - 46.4 °F 82% 30.19 in 1.0 mi East 2.3 mph - N/A   Haze
6:18 PM 51.8 °F - 46.4 °F 82% 30.19 in 0.8 mi East 2.3 mph - N/A   Haze
6:48 PM 48.2 °F - 44.6 °F 87% 30.20 in 1.0 mi East 3.5 mph - N/A   Clear
6:58 PM 48.6 °F - 45.3 °F 89% 30.19 in 1.2 mi East 4.6 mph - N/A   Clear
7:08 PM 48.2 °F - 44.6 °F 87% 30.20 in 7.0 mi East 4.6 mph - N/A   Clear
7:18 PM 48.2 °F - 44.6 °F 87% 30.20 in 10.0 mi East 2.3 mph - N/A   Clear
7:58 PM 46.8 °F - 44.4 °F 92% 30.20 in 10.0 mi Calm Calm - N/A   Clear
8:58 PM 46.8 °F - 44.8 °F 93% 30.21 in 10.0 mi ESE 4.6 mph - N/A   Clear
9:58 PM 45.7 °F - 44.8 °F 97% 30.23 in 10.0 mi ENE 1.2 mph - N/A   Clear
10:58 PM 45.7 °F - 44.8 °F 97% 30.23 in 10.0 mi ENE 2.3 mph - N/A   Clear
11:58 PM 45.5 °F 44.2 °F 45.0 °F 98% 30.24 in 10.0 mi NE 3.5 mph - N/A   Clear